FREGAT DEB, 46101

Orbit data source: Space-Track

FREGAT DEB, 46101 is space debris in LEO originally from a launch on Mon, 18 Jul 2011 UTC launched from the Tyuratam Missile And Space Complex (TTMTR). Debris objects in space refer to the collection of defunct objects orbiting the Earth. Examples of debris include non-operational satellites, rocket bodies, and fragments generated from explosions, collisions, or faulty payload assembly.

Loading next visibility...
Identifier
46101, 2011-037JL
Orbit
LEO
Country
Flag of CISCIS
Related business
Manufacturer
Lavochkin
Mission
Spacecraft
Bus & Motor
Unknown
Mass
Unknown
Launch date (UTC)
2011-07-18 (14 years ago)
Launch vehicle
Unknown
Launch site
Tyuratam Missile And Space Complex (TTMTR)
Object type
Payload
Rocket body
Debris
Shape & HBR
Unknown shape, 0.1 m
Radar Cross Section
Small (<0.1 m²)

Expand to show TLE details & history
Last TLE update: 2 weeks ago

TLE from 2 weeks ago
0 FREGAT DEB
1 46101U 11037JL  25328.57974936  .00036484  00000-0  49921-1 0  9995
2 46101  51.1662 285.3343 0563999 208.5995 148.2837 13.07386905102077
Epoch: 2025-11-24T13:54Z
TLE epoch observation values (Epoch: 2025-11-24T13:54:50.344Z)
Latitude
-0.00007°
Longitude
12.84679°
Altitude
1,605.289 km
Speed
6.894 km/s
True Right ascension
19h 01m 20s
True Declination
0° 00' 00"
Sunlit
Object was in daylight at epoch
Visualization orbit readout
Latitude
Unknown
Longitude
Unknown
Altitude
Unknown
Speed
Unknown
Apparent Right ascension
Unknown
Apparent Declination
Unknown
Sunlit
N/A
Visualization observer readout
Local Sidereal Time
06:24:53
Azimuth
Unknown
Elevation
Unknown
Doppler factor
Unknown
Orbital elements
Apogee altitude
1,663.124 km
Perigee altitude
804.498 km
Semi-major axis
7,611.948 km
Eccentricity
0.0564
Inclination
51.1662°
RAAN
285.3343°
Arg. of periapsis
208.5995°
True anomaly
151.48707°
Mean anomaly
148.2837°
Eccentric anomaly
149.90412°
Mean motion
3.26813 °/min
Orbital period
110.15 mins
BSTAR
0.049921
Loading maneuver chart data...
Computing Atmospheric mass density...
Loading historical data...
Loading historical data...
Loading historical data...
Loading historical data...
Loading historical data...
Loading historical data...
Loading historical data...

Documentation

Showing up to 5 results
|